RH
42 41 57 99 100 99 100 99 95 97 99 99 96 82 83 96 87 81 81 86 87 86 86 86 86 88 88 76 60 63 67 58 51 40 36 46 53 91 82 57 44 73 38
31 34 48 98 98 99 99 100 96 92 93 97 100 86 84 80 93 96 92 89 86 86 85 86 88 87 87 85 82 77 70 61 52 46 30 55 50 37 48 44 51 60 34
30 32 43 92 72 75 78 81 85 88 90 92 93 99 92 78 86 83 85 91 94 92 88 88 89 89 88 89 87 84 75 63 54 51 32 93 96 38 37 54 50 40 34
27 27 34 48 49 60 49 62 66 69 71 78 88 92 97 99 86 85 79 83 84 91 96 91 89 93 93 92 86 87 80 66 58 55 55 85 91 65 56 63 53 44 34
24 24 25 24 27 31 35 38 50 57 64 66 77 86 98 96 98 97 96 94 87 87 87 85 88 87 88 90 88 77 68 68 61 58 85 89 90 87 72 68 60 54 41
23 22 22 23 23 22 24 28 31 34 42 55 61 73 83 94 95 96 97 99 97 94 86 82 79 89 89 86 79 70 69 67 63 61 75 88 68 91 82 73 65 53 45
24 22 20 19 18 19 21 21 21 23 26 28 38 52 61 76 83 93 94 94 96 99 95 91 85 82 85 89 84 71 70 74 69 79 72 75 50 40 70 91 68 49 43
18 17 16 14 14 13 13 14 15 16 18 19 20 24 31 48 60 80 86 89 90 92 96 97 93 86 81 80 80 77 73 78 79 90 85 83 46 35 47 93 79 54 47
16 14 13 12 11 10 9 7 6 7 7 9 14 16 17 22 30 45 64 81 84 89 86 87 89 90 87 82 79 76 72 76 80 98 90 86 50 39 41 67 96 64 51
14 13 11 10 9 8 8 8 7 7 6 5 5 5 8 12 15 20 31 45 65 79 83 87 82 80 83 89 90 86 79 69 78 98 92 75 48 42 54 77 97 64 56
13 12 10 10 10 10 10 10 10 9 8 7 6 6 5 5 5 7 12 18 29 43 58 75 82 86 82 82 88 88 90 84 96 97 100 85 50 49 55 91 99 78 58
14 13 13 14 14 14 14 13 12 11 10 8 7 6 5 5 4 4 4 4 9 16 25 42 61 80 92 89 88 86 87 90 78 90 95 98 47 48 62 71 90 91 73
16 16 16 16 16 16 15 15 14 12 10 8 6 5 4 4 4 4 4 4 3 4 10 17 30 47 70 89 90 90 87 88 91 79 90 94 61 44 52 60 64 74 84
18 18 18 17 17 17 16 15 13 10 9 8 7 6 6 6 6 6 6 4 4 4 4 4 10 19 35 54 87 89 87 90 89 92 79 88 78 46 45 56 69 74 74
19 19 19 18 18 17 15 13 11 10 9 8 8 7 7 7 7 7 7 8 8 6 5 4 4 5 12 24 39 74 91 94 93 95 90 78 80 67 45 45 69 76 68
20 20 20 19 18 15 13 12 11 13 15 19 19 16 13 11 9 7 8 10 11 10 8 7 6 5 5 8 17 29 57 87 98 99 96 86 78 76 59 42 50 72 66
22 22 21 19 16 14 14 15 22 29 34 30 29 35 29 27 22 16 13 10 12 12 12 10 8 8 6 5 6 13 22 45 86 98 100 96 88 77 74 55 40 66 70
24 23 21 19 16 15 15 15 14 13 11 11 11 13 16 22 37 58 51 24 16 12 15 23 19 14 9 7 8 6 10 19 37 80 95 100 96 88 89 71 51 44 79
26 24 22 20 18 17 16 17 16 15 13 13 14 14 15 16 17 20 38 65 43 28 18 22 41 36 21 12 15 25 8 8 16 32 71 95 100 94 99 87 68 51 57
27 25 23 22 21 20 21 26 24 18 19 20 27 28 23 24 22 23 27 42 58 69 60 53 47 41 59 41 54 17 7 12 12 16 28 72 92 100 99 96 73 78 60
28 26 25 21 20 23 39 51 54 53 30 33 36 31 48 58 63 48 45 51 56 78 74 55 70 67 56 70 82 54 12 7 5 7 15 24 73 91 100 93 99 74 80
30 28 25 22 22 30 44 46 54 60 53 38 30 32 34 34 34 46 67 76 79 85 85 74 82 82 79 79 85 78 52 37 32 38 64 64 56 71 92 99 99 91 80
38 31 27 25 29 40 45 45 44 47 53 56 58 51 39 34 36 39 46 71 82 90 90 90 85 88 86 81 83 88 76 71 86 39 86 100 98 99 96 88 100 98 89
35 32 30 26 28 40 33 42 53 60 62 63 69 70 63 43 45 46 49 67 87 95 95 92 88 90 95 87 85 82 90 99 99 85 24 67 98 97 100 100 98 100 98
33 35 31 28 31 35 28 34 50 67 70 74 76 77 77 77 79 70 66 75 92 97 97 96 95 95 94 93 90 90 86 85 94 100 99 72 54 97 100 100 99 100 98
38 36 30 35 38 33 37 42 56 72 78 79 78 79 79 82 85 87 94 95 96 98 98 99 98 98 95 94 92 92 90 85 79 96 99 100 97 64 86 99 100 99 100
Wind_Speed
16 18 19 25 24 21 20 4 7 8 8 5 7 5 3 6 4 4 3 3 3 2 3 5 4 4 4 3 4 3 2 2 2 1 2 5 8 9 7 5 5 5 5
14 14 15 22 23 21 15 9 6 6 7 8 6 1 6 2 1 3 1 3 3 4 5 5 4 5 6 5 4 4 4 3 3 1 2 4 5 9 8 6 6 6 5
11 13 16 19 20 19 18 15 11 9 8 7 7 8 5 4 5 4 6 6 4 5 7 7 6 5 5 6 5 6 6 5 4 3 3 3 4 8 9 8 7 7 6
11 11 13 16 17 19 15 13 14 14 12 11 10 9 8 8 6 7 8 5 7 7 4 5 5 4 6 8 8 8 7 7 6 5 5 7 7 8 9 10 10 7 6
9 10 12 13 15 16 16 16 15 15 14 13 11 10 9 10 11 11 10 9 10 10 7 5 3 4 6 7 7 7 7 9 9 7 8 8 9 10 10 11 11 9 8
8 9 10 11 13 14 14 14 15 16 14 12 11 10 9 9 10 13 12 13 14 13 12 11 8 5 7 9 9 9 10 11 10 10 10 10 11 14 15 12 12 10 8
6 8 11 12 11 12 14 15 15 14 15 15 13 12 11 11 11 13 12 15 17 17 15 14 14 11 10 10 11 11 12 12 12 12 13 13 13 15 14 17 15 12 10
6 7 8 10 11 13 13 13 14 15 15 16 15 14 13 12 11 12 14 15 16 16 17 16 16 16 15 14 13 12 14 14 14 14 15 15 16 15 16 19 20 14 11
6 7 9 11 13 14 17 19 18 18 18 18 16 16 17 15 15 14 15 16 17 18 19 19 19 18 19 18 17 16 15 15 16 15 16 17 19 17 16 20 24 18 13
6 8 9 10 12 13 14 17 20 21 20 19 19 19 18 17 17 17 17 17 18 20 20 21 22 22 20 20 20 19 19 18 19 18 20 21 22 18 17 18 27 20 16
5 6 8 10 12 14 15 17 18 19 22 25 24 22 22 22 21 21 20 21 21 21 22 22 23 23 24 23 23 23 22 20 16 19 19 22 23 22 20 18 21 19 17
6 9 11 12 13 15 17 19 22 24 25 27 27 28 27 26 25 25 25 23 23 23 24 24 23 23 23 25 26 26 26 26 25 21 22 25 24 25 24 24 23 22 19
8 10 12 15 18 20 22 24 26 28 29 31 32 32 32 31 28 27 27 27 26 25 25 25 25 25 24 24 26 26 29 30 29 28 24 28 25 28 29 27 26 25 24
8 10 12 14 16 18 21 24 27 29 31 32 33 33 31 30 30 30 28 26 28 28 27 26 25 26 27 25 28 28 30 32 33 33 31 28 29 30 31 32 29 27 27
7 10 12 15 18 21 23 25 26 27 27 27 25 26 28 30 31 31 29 29 28 26 29 29 28 27 28 30 29 31 31 32 34 36 36 32 33 32 34 35 34 31 29
6 9 12 15 17 19 21 23 25 26 26 25 23 24 22 21 21 25 30 30 28 28 27 28 30 30 29 29 32 32 33 35 35 36 40 39 34 35 36 37 38 33 31
4 7 11 15 19 22 24 25 23 24 25 25 26 27 28 26 24 23 21 23 29 31 29 28 28 29 32 32 32 34 35 35 39 38 37 42 41 36 39 39 40 39 34
5 9 13 17 20 21 21 22 22 22 23 23 25 27 28 29 28 26 22 22 23 25 29 27 25 28 29 32 33 34 36 38 39 42 42 39 44 40 36 42 42 43 41
5 10 14 17 19 20 22 22 21 20 21 21 22 21 23 26 27 28 26 24 24 23 23 25 25 24 27 29 31 32 35 38 41 41 43 43 40 45 36 41 44 44 45
6 10 14 18 20 22 22 22 21 21 21 22 21 21 24 22 22 25 26 26 25 22 20 21 23 25 24 25 28 35 38 37 38 42 43 44 46 45 45 41 44 46 45
7 11 16 20 21 22 21 19 18 18 22 21 21 23 21 21 21 21 21 22 23 21 21 21 22 22 23 20 24 26 35 38 38 41 43 42 47 48 43 51 46 48 49
8 13 17 20 20 20 19 20 20 20 21 24 24 23 23 24 25 23 21 20 19 20 20 19 19 20 19 15 19 22 19 25 22 29 26 26 31 46 47 45 52 48 51
8 13 18 19 19 20 21 21 22 22 20 19 19 23 24 25 25 25 24 21 20 19 19 19 18 19 19 18 15 12 10 9 25 20 16 21 26 27 37 53 43 49 51
11 16 19 20 21 20 22 21 21 20 20 20 22 21 24 25 25 25 24 22 20 19 20 19 18 18 18 20 17 15 17 19 12 19 22 25 22 30 36 37 48 46 48
13 16 19 21 21 21 22 22 22 20 20 20 21 22 23 23 23 23 23 23 21 19 20 20 20 20 19 20 20 19 19 20 21 28 31 31 35 30 29 25 34 40 54
13 18 21 20 20 21 21 22 21 21 21 22 22 23 22 22 22 22 21 22 22 21 21 20 20 21 21 21 22 21 21 21 20 20 20 29 34 42 35 33 29 29 31
Wind_Direction
5 6 8 14 12 20 26 30 19 23 24 38 87 95 25 53 13 341 333 328 311 282 266 256 257 257 225 236 243 277 279 323 1 16 110 143 176 176 171 172 163 160 170
3 5 4 13 14 16 24 33 20 0 351 1 357 352 132 131 133 127 266 284 282 277 270 276 278 267 246 222 251 259 280 303 312 298 201 178 182 195 202 194 169 177 167
17 16 15 16 15 16 18 13 17 26 4 341 325 343 293 204 206 231 209 215 212 270 271 282 284 266 253 228 220 270 273 289 279 274 208 170 201 189 183 180 172 160 148
23 16 20 22 18 12 5 355 359 0 1 354 344 298 314 303 272 261 248 236 238 236 225 277 283 272 257 254 255 220 253 274 265 255 220 195 212 206 194 180 175 164 147
28 21 16 14 17 10 0 357 349 343 351 351 344 330 303 285 302 294 287 279 260 268 267 256 285 277 274 261 252 256 258 256 256 247 220 217 206 231 208 198 188 176 155
30 25 18 7 3 357 356 350 349 348 339 335 338 338 329 310 293 281 291 292 283 275 263 257 244 259 257 262 259 260 259 254 248 245 236 233 221 229 221 211 196 191 175
29 21 14 10 9 360 351 346 339 333 334 338 331 328 324 314 304 301 291 279 280 275 272 263 254 245 235 239 253 256 260 256 248 242 243 245 244 238 225 213 203 199 192
47 37 29 22 14 12 7 357 347 341 332 332 335 330 322 313 304 292 288 291 287 278 272 269 263 261 256 245 243 245 252 256 248 242 245 248 249 242 233 218 211 205 204
47 36 25 16 9 5 1 5 7 1 352 346 333 324 322 319 314 305 293 287 280 282 275 268 265 261 261 262 257 251 240 252 251 247 246 248 251 246 237 226 219 211 204
39 25 19 13 9 8 8 5 360 358 358 352 344 337 326 317 311 305 300 294 287 282 279 271 265 263 260 258 257 253 249 242 247 249 250 247 249 243 239 239 216 208 206
48 36 26 17 11 6 1 357 355 352 350 348 345 338 331 325 318 311 301 292 288 283 280 276 272 265 259 257 255 253 250 247 249 250 250 253 245 240 232 228 220 211 221
49 30 23 17 12 7 3 359 355 352 350 346 341 336 331 327 323 317 310 304 295 288 285 281 276 268 264 257 253 251 250 246 243 237 249 252 246 239 233 230 228 228 229
43 30 20 13 8 5 2 359 355 352 349 344 340 336 333 328 322 317 312 308 303 295 285 280 277 276 269 261 256 253 249 247 244 243 236 252 248 241 236 236 237 233 229
38 24 17 11 6 2 359 356 353 350 347 344 341 336 333 329 326 324 319 312 308 304 299 292 283 278 275 272 261 256 251 250 245 241 243 240 248 241 238 237 238 236 231
37 23 12 6 1 358 355 351 347 344 342 339 336 333 330 328 327 325 321 320 315 305 302 299 293 284 275 272 270 261 256 249 246 243 241 241 245 240 239 237 237 237 234
31 16 8 359 353 349 346 345 345 343 341 339 338 336 334 328 321 316 318 319 316 313 308 301 298 295 285 275 269 268 263 255 251 244 240 241 241 240 238 238 236 235 237
8 357 352 350 349 349 350 350 347 344 342 337 334 333 332 331 329 325 318 309 312 312 311 307 299 293 291 286 278 269 267 262 253 252 244 238 239 245 238 236 236 233 234
8 2 356 352 348 345 343 341 338 333 326 321 320 321 321 323 325 325 322 319 312 306 309 309 307 300 293 290 289 278 269 264 259 252 249 242 238 237 244 234 235 233 231
2 354 350 346 341 337 334 334 333 329 322 317 314 312 310 312 312 314 315 315 317 315 309 306 306 305 301 295 291 287 277 270 263 258 251 246 239 233 239 239 232 235 232
343 345 345 342 337 334 335 334 332 331 325 323 320 319 318 313 308 309 309 310 312 313 312 308 305 303 303 301 296 288 286 277 270 263 257 249 244 234 230 239 236 233 234
330 338 340 339 336 333 333 331 325 323 324 321 318 319 319 317 315 314 310 308 308 308 307 309 307 307 304 307 305 296 285 283 278 268 263 258 246 244 241 236 244 234 234
318 329 334 336 332 327 326 324 322 319 319 319 319 318 315 314 313 312 309 306 303 302 303 304 304 304 304 307 306 307 303 293 271 254 254 254 261 245 242 242 240 239 233
309 321 330 331 327 325 325 322 320 318 315 313 311 311 311 311 309 308 306 301 299 298 297 298 301 301 302 298 296 285 309 297 309 276 257 243 240 239 247 241 237 241 235
301 316 324 326 324 322 323 318 316 313 309 307 307 305 308 307 306 304 303 300 295 292 291 292 292 290 291 292 289 279 268 271 292 304 272 250 241 233 228 228 238 236 237
296 311 317 319 320 319 318 314 312 307 305 304 303 303 302 302 302 301 300 298 293 289 285 283 284 283 280 280 280 281 276 271 270 266 285 286 263 249 234 228 223 224 241
293 307 311 315 317 316 314 311 307 305 305 304 303 302 301 300 299 298 296 294 290 287 285 283 280 278 276 274 274 273 271 268 268 273 278 280 288 270 260 245 244 220 228